LEMUR-2-MORAG (44403 NORAD) Tracking and Keplerian Element Data

This shows tracking and keplerian element data for the satellite.

Feedback or suggestion? Click here.




ElementValue
Catalog44403
NameLEMUR-2-MORAG
Epoch Orbit429
Epoch Day214.89452944
Epoch Year2019
RAAN176.2897
Inclination97.4928
Eccentricity0.0024695
Argument of Perigee147.4874
Mean Anonmoly212.7883
Mean Motion15.11768911
Decay Rate8.69E-06
L11 44403U 19038T 19214.89452944 .00000869 00000-0 54401-4 0 9999
L22 44403 97.4928 176.2897 0024695 147.4874 212.7883 15.11768911 4293

Live tracking and technical data element details for LEMUR-2-MORAG (NORAD 44403). LEMUR-2-MORAG can be tracked NOW for your location showing map with azimuth and elevation plus other details from your city location.

Track the satellite on the map from your city or location and see movement details for azimuth, elevation, latitude, longitude, range, height, and movement on the map or in text.







IsCatalogInMostPopularTable: catalog: 44403, numindb: 16
Update: records affected: 1



GetName: 44403 LEMUR-2-MORAG

Hit Count: updated at: Thu, 05 Dec 2019 17:52:02 GMT